Date,TemperatureHighF,TemperatureAvgF,TemperatureLowF,DewpointHighF,DewpointAvgF,DewpointLowF,HumidityHigh,HumidityAvg,HumidityLow,PressureMaxIn,PressureMinIn,WindSpeedMaxMPH,WindSpeedAvgMPH,GustSpeedMaxMPH,PrecipitationSumIn
2013-1-1,46,42,37,27,20,13,67,43,30,30.15,30.06,0,0,0,0.00
2013-1-2,55,46,37,21,16,12,45,31,21,30.09,30.01,0,0,0,0.00
2013-1-4,52,52,52,10,9,8,18,18,17,30.17,30.17,0,0,0,0.00
2013-1-6,47,42,37,37,34,31,93,76,57,30.10,29.94,0,0,0,0.13
2013-1-7,59,47,36,35,27,16,92,51,23,30.02,29.91,0,0,0,0.00
2013-1-8,68,57,46,35,27,15,40,32,22,30.12,29.99,0,0,0,0.00
2013-1-9,66,57,46,38,33,29,71,41,30,30.13,29.96,0,0,0,0.00
2013-1-10,49,41,34,42,32,17,97,74,41,29.96,29.83,0,0,0,0.22
2013-1-11,43,35,29,25,20,17,76,55,40,30.06,29.95,0,0,0,0.00
2013-1-12,44,36,29,24,17,11,78,48,27,30.05,29.95,0,0,0,0.00
2013-1-13,45,37,31,14,11,7,42,35,24,30.05,29.96,0,0,0,0.00
2013-1-14,42,34,27,8,2,-5,42,26,14,30.21,30.04,0,0,0,0.00
2013-1-15,51,42,32,22,15,2,39,32,24,30.32,30.21,0,0,0,0.00
2013-1-16,59,51,43,27,22,16,43,32,23,30.29,30.15,14,4,23,0.00
2013-1-17,64,56,48,19,15,11,26,20,17,30.19,30.11,22,8,23,0.00
2013-1-18,65,58,50,22,17,13,27,20,16,30.17,30.10,21,9,22,0.00
2013-1-19,65,58,48,18,12,4,27,16,13,30.20,30.12,22,7,23,0.00
2013-1-20,67,58,50,16,10,6,21,15,11,30.16,30.06,15,6,18,0.00
2013-1-21,68,60,55,18,8,2,19,12,8,30.13,30.06,15,7,20,0.00
2013-1-22,69,62,56,21,11,-3,21,14,8,30.14,30.08,20,6,22,0.00
2013-1-23,69,63,58,42,30,20,51,30,21,30.15,30.08,14,5,16,0.00
2013-1-24,59,54,49,52,45,32,96,74,42,30.19,30.10,15,4,17,0.42
2013-1-25,59,53,51,52,49,47,94,87,66,30.16,29.95,23,6,23,0.41
2013-1-26,58,52,50,53,50,48,98,94,82,29.98,29.90,9,2,11,0.34
2013-1-27,50,45,36,50,44,33,99,94,84,30.00,29.93,14,4,21,0.04
2013-1-28,47,40,34,34,28,22,90,63,40,30.09,29.94,15,4,18,0.01
2013-1-29,51,41,35,38,34,24,90,74,57,30.16,30.07,9,3,14,0.00
2013-1-30,59,53,47,38,34,30,65,49,40,30.28,30.15,20,7,21,0.00
2013-1-31,65,58,47,38,34,31,64,42,33,30.22,30.13,14,6,17,0.00